{"data":{"norad_id":69687,"intl_designator":"2026-145L","name":"STARLINK-37977","alt_names":[],"object_type":"PAYLOAD","status":"ACTIVE","operator":null,"country":"US","launch_date":"2026-06-25","launch_site_code":"AFWTR","launch_vehicle":null,"mission":null,"orbit_class":"UNKNOWN","rcs_meters":null,"size_class":null,"mass_kg":null,"dimensions":null,"purposes":["comms"],"wikipedia_slug":null,"has_3d_model":false,"image_url":null,"decayed_at":null,"tle_current":{"epoch":"2026-09-19T11:02:08.607840Z","epoch_age_seconds":111560,"freshness":"FRESH","line1":"1 69687U 26145L   26262.45982185  .00018694  00000+0  58006-3 0  9993","line2":"2 69687  97.2853 109.1372 0001499  66.6617 293.4783 15.33437427 13380","mean_motion":15.33437427,"eccentricity":0.0001499,"inclination_deg":97.2853,"raan_deg":109.1372,"arg_perigee_deg":66.6617,"mean_anomaly_deg":293.4783,"bstar":0.00058006,"rev_number":1338,"period_min":93.90666841993,"perigee_km":464.5398354551,"apogee_km":466.5915775265,"semimajor_km":6843.7027064908,"source":"CELESTRAK","updated_at":"2026-09-20T09:00:44.253914Z"}}}